When you browse on this site, cookies collect data to enhance your experience and personalize the content and advertising you see.
Visit our Privacy Policy to learn more. By continuing to use the site, you agree to this use of cookies and data.
  • In United Kingdom
  • List of Countries
  • For 7 days
  • Water Temperature
  • Satellite Maps
  • Weather Map
  • Weather Widgets
  • user-avatar
    Login

    Hourly Weather Aluksne

    Today, 26 April, Friday

    Time Temperature Precipitation Wind Pressure Humidity
    00:00 +13°C° 0 mm 1 mps 747 mmHg 58%
    01:00 +13°C° 0 mm 1 mps 747 mmHg 60%
    02:00 +10°C° 0 mm 0 mps 746 mmHg 67%
    03:00 +11°C° 0 mm 1 mps 746 mmHg 68%
    04:00 +10°C° 0 mm 1 mps 746 mmHg 69%
    05:00 +10°C° 0 mm 1 mps 746 mmHg 70%
    06:00 +12°C° 0 mm 1 mps 746 mmHg 66%
    07:00 +14°C° 0 mm 1 mps 746 mmHg 61%
    08:00 +16°C° 0 mm 1 mps 746 mmHg 57%
    09:00 +18°C° 0 mm 2 mps 746 mmHg 51%
    10:00 +19°C° 0 mm 2 mps 746 mmHg 45%
    11:00 +21°C° 0 mm 2 mps 745 mmHg 39%
    12:00 +23°C° 0 mm 2 mps 745 mmHg 38%
    13:00 +24°C° 0 mm 2 mps 745 mmHg 38%
    14:00 +24°C° 0 mm 2 mps 745 mmHg 37%
    15:00 +24°C° 0 mm 2 mps 744 mmHg 38%
    16:00 +24°C° 0 mm 2 mps 744 mmHg 40%
    17:00 +23°C° 0 mm 2 mps 744 mmHg 41%
    18:00 +21°C° 0 mm 2 mps 744 mmHg 47%
    19:00 +19°C° 0 mm 2 mps 743 mmHg 52%
    20:00 +19°C° 0 mm 1 mps 743 mmHg 58%
    21:00 +18°C° 0 mm 1 mps 743 mmHg 62%
    22:00 +15°C° 0 mm 1 mps 743 mmHg 65%
    23:00 +14°C° 0 mm 1 mps 742 mmHg 69%

    Tomorrow, 27 April, Saturday

    Time Temperature Precipitation Wind Pressure Humidity
    00:00 +14°C° 0 mm 1 mps 742 mmHg 70%
    01:00 +13°C° 0 mm 1 mps 742 mmHg 71%
    02:00 +13°C° 0 mm 1 mps 742 mmHg 72%
    03:00 +12°C° 0 mm 1 mps 741 mmHg 74%
    04:00 +12°C° 0 mm 1 mps 741 mmHg 75%
    05:00 +11°C° 0 mm 1 mps 741 mmHg 77%
    06:00 +14°C° 0 mm 1 mps 741 mmHg 70%
    07:00 +16°C° 0 mm 1 mps 741 mmHg 63%
    08:00 +17°C° 0 mm 0 mps 741 mmHg 56%
    09:00 +21°C° 0 mm 1 mps 740 mmHg 50%
    10:00 +23°C° 0 mm 1 mps 740 mmHg 45%
    11:00 +25°C° 0 mm 1 mps 740 mmHg 39%
    12:00 +26°C° 0 mm 1 mps 740 mmHg 37%
    13:00 +25°C° 0 mm 0 mps 740 mmHg 35%
    14:00 +25°C° 0 mm 0 mps 740 mmHg 33%
    15:00 +26°C° 0 mm 1 mps 739 mmHg 39%
    16:00 +24°C° 0 mm 1 mps 739 mmHg 44%
    17:00 +21°C° 0 mm 2 mps 739 mmHg 50%
    18:00 +19°C° 0 mm 2 mps 739 mmHg 55%
    19:00 +18°C° 0 mm 2 mps 739 mmHg 61%
    20:00 +17°C° 0 mm 2 mps 740 mmHg 67%
    21:00 +16°C° 0.2 mm 2 mps 740 mmHg 70%
    22:00 +14°C° 0.2 mm 3 mps 740 mmHg 73%
    23:00 +14°C° 0.2 mm 3 mps 740 mmHg 76%

    Day after tomorrow, 28 April, Sunday

    Time Temperature Precipitation Wind Pressure Humidity
    00:00 +13°C° 0 mm 3 mps 741 mmHg 76%
    01:00 +12°C° 0 mm 4 mps 741 mmHg 75%
    02:00 +11°C° 0 mm 4 mps 742 mmHg 75%
    03:00 +11°C° 0 mm 4 mps 742 mmHg 76%
    04:00 +10°C° 0 mm 4 mps 742 mmHg 78%
    05:00 +8°C° 0 mm 4 mps 743 mmHg 79%
    06:00 +9°C° 0 mm 5 mps 743 mmHg 75%
    07:00 +9°C° 0 mm 5 mps 744 mmHg 71%
    08:00 +9°C° 0 mm 5 mps 744 mmHg 67%
    09:00 +10°C° 0 mm 5 mps 745 mmHg 60%
    10:00 +12°C° 0 mm 5 mps 745 mmHg 53%
    11:00 +13°C° 0 mm 5 mps 745 mmHg 46%
    12:00 +14°C° 0 mm 5 mps 746 mmHg 43%
    13:00 +14°C° 0 mm 5 mps 746 mmHg 39%
    14:00 +14°C° 0 mm 5 mps 746 mmHg 35%
    15:00 +14°C° 0 mm 5 mps 746 mmHg 34%
    16:00 +13°C° 0 mm 5 mps 746 mmHg 33%
    17:00 +13°C° 0 mm 5 mps 747 mmHg 32%
    18:00 +11°C° 0 mm 4 mps 747 mmHg 35%
    19:00 +8°C° 0 mm 4 mps 747 mmHg 39%
    20:00 +8°C° 0 mm 3 mps 748 mmHg 42%
    21:00 +7°C° 0 mm 3 mps 748 mmHg 44%
    22:00 +5°C° 0 mm 3 mps 749 mmHg 45%
    23:00 +4°C° 0 mm 3 mps 749 mmHg 46%

    29 April, Monday

    Time Temperature Precipitation Wind Pressure Humidity
    00:00 +4°C° 0 mm 3 mps 749 mmHg 49%
    01:00 +3°C° 0 mm 3 mps 749 mmHg 51%
    02:00 +2°C° 0 mm 3 mps 750 mmHg 53%
    03:00 +3°C° 0 mm 2 mps 750 mmHg 56%
    04:00 +2°C° 0 mm 2 mps 750 mmHg 59%
    05:00 +1°C° 0 mm 2 mps 750 mmHg 62%
    06:00 +3°C° 0 mm 2 mps 750 mmHg 54%
    07:00 +4°C° 0 mm 3 mps 750 mmHg 46%
    08:00 +7°C° 0 mm 3 mps 751 mmHg 39%
    09:00 +8°C° 0 mm 3 mps 751 mmHg 36%
    10:00 +10°C° 0 mm 3 mps 750 mmHg 33%
    11:00 +11°C° 0 mm 3 mps 750 mmHg 30%
    12:00 +11°C° 0 mm 3 mps 750 mmHg 29%
    13:00 +12°C° 0 mm 3 mps 750 mmHg 29%
    14:00 +13°C° 0 mm 3 mps 750 mmHg 28%
    15:00 +13°C° 0 mm 3 mps 749 mmHg 29%
    16:00 +14°C° 0 mm 2 mps 749 mmHg 30%
    17:00 +13°C° 0 mm 2 mps 749 mmHg 31%
    18:00 +12°C° 0 mm 2 mps 748 mmHg 37%
    19:00 +9°C° 0 mm 2 mps 748 mmHg 43%
    20:00 +8°C° 0 mm 1 mps 748 mmHg 49%
    21:00 +7°C° 0 mm 1 mps 748 mmHg 52%
    22:00 +6°C° 0 mm 1 mps 748 mmHg 55%
    23:00 +5°C° 0 mm 1 mps 748 mmHg 58%

    30 April, Tuesday

    Time Temperature Precipitation Wind Pressure Humidity
    00:00 +4°C° 0 mm 1 mps 748 mmHg 60%
    01:00 +4°C° 0 mm 1 mps 748 mmHg 62%
    02:00 +4°C° 0 mm 1 mps 748 mmHg 64%
    03:00 +3°C° 0 mm 1 mps 747 mmHg 64%
    04:00 +3°C° 0 mm 1 mps 747 mmHg 65%
    05:00 +3°C° 0 mm 1 mps 747 mmHg 65%
    06:00 +5°C° 0 mm 1 mps 747 mmHg 58%
    07:00 +7°C° 0 mm 1 mps 747 mmHg 52%
    08:00 +9°C° 0 mm 1 mps 747 mmHg 45%
    09:00 +11°C° 0 mm 1 mps 747 mmHg 40%
    10:00 +12°C° 0 mm 1 mps 746 mmHg 36%
    11:00 +14°C° 0 mm 1 mps 746 mmHg 31%
    12:00 +15°C° 0 mm 2 mps 746 mmHg 30%
    13:00 +15°C° 0 mm 2 mps 745 mmHg 29%
    14:00 +15°C° 0 mm 2 mps 745 mmHg 28%
    15:00 +15°C° 0 mm 2 mps 745 mmHg 31%
    16:00 +13°C° 0 mm 3 mps 744 mmHg 34%
    17:00 +13°C° 0 mm 3 mps 744 mmHg 37%
    18:00 +12°C° 0 mm 2 mps 744 mmHg 45%
    19:00 +9°C° 0 mm 2 mps 744 mmHg 53%
    20:00 +7°C° 0 mm 2 mps 744 mmHg 60%
    21:00 +7°C° 0 mm 1 mps 744 mmHg 63%
    22:00 +6°C° 0 mm 1 mps 744 mmHg 66%
    23:00 +5°C° 0 mm 1 mps 744 mmHg 69%

    1 May, Wednesday

    Time Temperature Precipitation Wind Pressure Humidity
    00:00 +5°C° 0 mm 1 mps 744 mmHg 70%
    01:00 +5°C° 0 mm 1 mps 744 mmHg 70%
    02:00 +3°C° 0 mm 0 mps 744 mmHg 71%
    03:00 +3°C° 0 mm 0 mps 743 mmHg 70%
    04:00 +3°C° 0 mm 0 mps 743 mmHg 68%
    05:00 +4°C° 0 mm 1 mps 743 mmHg 67%
    06:00 +6°C° 0 mm 1 mps 743 mmHg 59%
    07:00 +8°C° 0 mm 1 mps 743 mmHg 52%
    08:00 +11°C° 0 mm 1 mps 743 mmHg 44%
    09:00 +12°C° 0 mm 1 mps 742 mmHg 42%
    10:00 +14°C° 0 mm 2 mps 742 mmHg 39%
    11:00 +15°C° 0 mm 2 mps 742 mmHg 37%
    12:00 +15°C° 0 mm 2 mps 741 mmHg 38%
    13:00 +15°C° 0 mm 2 mps 741 mmHg 39%
    14:00 +15°C° 0 mm 2 mps 740 mmHg 40%
    15:00 +15°C° 0 mm 2 mps 739 mmHg 42%
    16:00 +15°C° 0 mm 2 mps 739 mmHg 44%
    17:00 +14°C° 0 mm 2 mps 738 mmHg 46%
    18:00 +13°C° 0 mm 2 mps 738 mmHg 51%
    19:00 +12°C° 0 mm 1 mps 738 mmHg 55%
    20:00 +10°C° 0 mm 1 mps 738 mmHg 60%
    21:00 +9°C° 0 mm 1 mps 737 mmHg 63%
    22:00 +8°C° 0 mm 1 mps 737 mmHg 66%
    23:00 +7°C° 0 mm 1 mps 737 mmHg 69%
    Show more